Location: Devore Heights
(34.2372°N, 117.4156°W)
Time: 23:08:19
(UTC+00:00)

Explorer 11/Cluster Stage 4 - Pass Details

Date: 13 September 2024
Orbit: 464 x 1207 km, 28.8° (Epoch: 14 October)

Event Time Altitude Azimuth Distance (km) Brightness Sun altitude
Rises 12:45:06 0° 202° (SSW) 3,435 9.5 -10.4°
Reaches altitude 10° 12:48:43 10° 180° (S) 2,660 9.2 -9.7°
Maximum altitude 12:52:15 15° 147° (SSE) 2,443 9.4 -8.9°
Drops below altitude 10° 12:56:05 10° 114° (ESE) 2,930 10.4 -8.2°
Sets 13:00:24 0° 94° (E) 4,003 12.1 -7.3°
